Zurück zum Katalog

CZ-6A DEB

AktivPO
NORAD 60694·DEBRIS·🇨🇳 China

Gestartet Aug 6, 2024 von Taiyuan Satellite Launch Center

Loading…

Nächste Überflüge (nächste 24 Stunden)

TLE

AktuellSource: Space-Track

Epoche: Sep 14, 2026, 11:10 UTC

1 60694U 24140CX  26257.46536119  .00000778  00000-0  37022-3 0  9992
2 60694  89.0053 265.9155 0057129 277.6302  81.8401 14.17648294108553

Verfolge CZ-6A DEB in Echtzeit mit AllMySat

Download on the App Store